This is the latest recevied weather packets stored in our database for station/object OE7AOT-10. If no packets are shown the sender has not sent any weather packets the latest 10 day(s).
| Time | Temp. | Humidity | Pressure | Rain* | Wind** | Luminosity | Snow |
|---|---|---|---|---|---|---|---|
| 1777985451 | 25° C | 27% | 1016.9 hPa | - | - | - | - |
| 1777984551 | 25° C | 27% | 1017 hPa | - | - | - | - |
| 1777983651 | 25° C | 29% | 1017 hPa | - | - | - | - |
| 1777982751 | 25° C | 29% | 1016.7 hPa | - | - | - | - |
| 1777981851 | 25° C | 32% | 1016.6 hPa | - | - | - | - |
| 1777980951 | 25° C | 29% | 1016.6 hPa | - | - | - | - |
| 1777980050 | 25° C | 29% | 1016.6 hPa | - | - | - | - |
| 1777979150 | 25° C | 30% | 1016.7 hPa | - | - | - | - |
| 1777978250 | 24.44° C | 30% | 1016.8 hPa | - | - | - | - |
| 1777977350 | 24.44° C | 29% | 1017.1 hPa | - | - | - | - |
| 1777976450 | 24.44° C | 29% | 1017.3 hPa | - | - | - | - |
| 1777975550 | 23.89° C | 27% | 1017.5 hPa | - | - | - | - |
| 1777974650 | 23.33° C | 27% | 1017.6 hPa | - | - | - | - |
| 1777973750 | 23.33° C | 27% | 1017.7 hPa | - | - | - | - |
| 1777972849 | 23.89° C | 27% | 1017.9 hPa | - | - | - | - |
| 1777971949 | 23.33° C | 27% | 1018.1 hPa | - | - | - | - |
| 1777971049 | 23.89° C | 28% | 1018.1 hPa | - | - | - | - |
| 1777970149 | 23.89° C | 33% | 1018.3 hPa | - | - | - | - |
| 1777969249 | 23.89° C | 33% | 1018.4 hPa | - | - | - | - |
| 1777968349 | 23.33° C | 33% | 1018.6 hPa | - | - | - | - |
| 1777967448 | 23.33° C | 33% | 1018.8 hPa | - | - | - | - |
| 1777966548 | 23.33° C | 30% | 1018.8 hPa | - | - | - | - |
| 1777965648 | 23.33° C | 36% | 1018.9 hPa | - | - | - | - |
| 1777964747 | 22.78° C | 35% | 1019 hPa | - | - | - | - |
| 1777963847 | 23.33° C | 35% | 1019.1 hPa | - | - | - | - |
* Rain since midnight (hover to see other rain measurements)
** Current wind speed in m/s (hover to see current wind gust speed)